METEOR 2-11 DEB, 40705

Orbit data source: Space-Track

METEOR 2-11 DEB, 40705 is space debris in LEO originally from a launch on Thu, 05 Jul 1984 UTC launched from the Plesetsk Missile And Space Complex (PKMTR). Debris objects in space refer to the collection of defunct objects orbiting the Earth. Examples of debris include non-operational satellites, rocket bodies, and fragments generated from explosions, collisions, or faulty payload assembly.

Loading next visibility...
Identifier
40705, 1984-072G
Orbit
LEO
Last TLE update
12 hours ago
Origin
Manufacturer
Unknown
Mission
Spacecraft
Bus & Motor
Unknown
Mass
Unknown
Launch date (UTC)
1984-07-05 (41 years ago)
Launch vehicle
Unknown
Launch site
Plesetsk Missile And Space Complex (PKMTR)
Object type
Payload
Rocket body
Debris
Shape & HBR
Unknown
Radar Cross Section
Small (<0.1 m²)

Expand to show TLE details & history

TLE from 12 hours ago
0 METEOR 2-11 DEB
1 40705U 84072G   25199.45582161  .00001026  00000-0  72967-3 0  9998
2 40705  82.5195 279.1331 0021231 273.3403  86.5336 13.96566673540737
Epoch: 2025-07-18T10:56Z
TLE epoch observation values (Epoch: 2025-07-18T10:56:22.987Z)
Latitude
0.00007°
Longitude
178.5303°
Altitude
907.724 km
Speed
7.399 km/s
True Right ascension
18h 36m 31s
True Declination
0° 00' 00"
Sunlit
Object was in full shadow at epoch
Visualization orbit readout
Latitude
14.63292°
Longitude
-179.92584°
Altitude
911.328 km
Speed
7.396 km/s
Apparent Right ascension
20h 43m 54s
Apparent Declination
-13° 19' 31"
Sunlit
Object is in full shadow
Visualization observer readout
Local Sidereal Time
11:50:18
Azimuth
70.366° E
Elevation
-41.352°
Doppler factor
1
Orbital elements
Apogee altitude
918.303 km
Perigee altitude
887.386 km
Semi-major axis
7,280.981 km
Eccentricity
0.00212
Inclination
82.5195°
RAAN
279.1331°
Arg. of periapsis
273.3403°
True anomaly
86.77648°
Mean anomaly
86.5336°
Eccentric anomaly
86.65504°
Mean motion
3.49348 °/min
Orbital period
103.05 mins
BSTAR
0.00072967
Loading maneuver chart data...
Loading SW <> Apogee altitude chart data...
Loading historical data...
Loading historical data...
Loading historical data...
Loading historical data...
Loading historical data...
Loading historical data...
Loading historical data...
|